{"data":{"norad_id":59268,"intl_designator":"2024-050Q","name":"STARLINK-31627","alt_names":[],"object_type":"PAYLOAD","status":"ACTIVE","operator":null,"country":"US","launch_date":"2024-03-19","launch_site_code":"AFWTR","launch_vehicle":null,"mission":null,"orbit_class":"UNKNOWN","rcs_meters":null,"size_class":null,"mass_kg":null,"dimensions":null,"purposes":["comms"],"wikipedia_slug":null,"has_3d_model":false,"image_url":null,"decayed_at":null,"tle_current":{"epoch":"2026-09-21T13:19:17.792256Z","epoch_age_seconds":71165,"freshness":"FRESH","line1":"1 59268U 24050Q   26264.55506704  .00015986  00000+0  48312-3 0  9992","line2":"2 59268  53.1624 348.5794 0001012  72.5375 287.5738 15.34408557140575","mean_motion":15.34408557,"eccentricity":0.0001012,"inclination_deg":53.1624,"raan_deg":348.5794,"arg_perigee_deg":72.5375,"mean_anomaly_deg":287.5738,"bstar":0.00048312,"rev_number":14057,"period_min":93.84723471664,"perigee_km":461.98551665951,"apogee_km":463.37009757648,"semimajor_km":6840.814807118,"source":"CELESTRAK","updated_at":"2026-09-22T09:00:48.873276Z"}}}